250P/Larson (1996)

Japanese version
Home page
Updated on March 27, 2011

---------------------------------------------------------------------

* Profile

* Orbital Elements

Epoch 1996 June 6.0 TT = JDT 2450240.5
T 1996 May 31.97932 TT                                  MPC
q   2.2434229            (2000.0)            P               Q
n   0.13563191     Peri.   45.07011     -0.46609231     -0.85680379
a   3.7517002      Node    73.89377     +0.73326599     -0.51359053
e   0.4020250      Incl.   13.27160     +0.49505448     -0.04595695
P   7.27
From 214 observations 1995 Dec. 22-2011 Mar. 12, mean residual 0".57.

* Magnitudes Graph

        m1 = 12.3 + 5 log d + 15 log r

---------------------------------------------------------------------

The orbital elements are published on M.P.E.C. 2011-F21.
The magnitudes graphs are made with Comet for Windows.

---------------------------------------------------------------------

Copyright(C) Seiichi Yoshida (comet@aerith.net). All rights reserved.